sat.trackr.live / text

‹ back to catalog

ONEWEB-0430

NORAD 50501 · 2021-132AJ

PAYLOAD ACTIVE UNKNOWN

§ Identity

Operator
Country
UK
Launch date
2021-12-27
Launch site
TYMSC
Launch vehicle
Mass (kg)
RCS (m²)

Purposes: comms

External: N2YO · Heavens-Above · Gunter

§ Orbital elements

Epoch: 2026-09-19T22:41:24.673344Z

Period
109.20 min
Inclination
87.9161°
Eccentricity
0.0001766
Mean motion
13.18687299 rev/d
Perigee alt
1,188.4 km
Apogee alt
1,191.1 km
Semi-major
7,567.9 km
B*
2.4448e-4
RAAN
316.6276°
Arg perigee
90.1326°
Mean anomaly
270.0009°
Rev number
23,411

§ Raw data

ONEWEB-04301 50501U 21132AJ  26262.94542446  .00000109  00000+0  24448-3 0  99902 50501  87.9161 316.6276 0001766  90.1326 270.0009 13.18687299234110

JSON: /api/v1/satellites/50501 · /tle

For live sub-satellite position, see the globe view (requires WebGL).

§ Visibility from observer

Set your observer location to see the next 7 days of passes ≥ 10°. The values pass through the URL so the page stays shareable.

No JS? Fill the form by hand. The geolocation button needs JavaScript.